| time (UTC) | temp F | wind direction | speed MPH | gust MPH | rain 1hr in | rain 24hr in | rain mn in | humidity % | barometer mb |
| 20260505021521 | 69 | 236 | 3.0 | 10.0 | 0.00 | 0.00 | 0.00 | 36 | 997.6 |
| 20260505020019 | 71 | 5 | 10.0 | 18.0 | 0.00 | 0.00 | 0.00 | 34 | 997.0 |
| 20260505014518 | 71 | 209 | 3.0 | 11.0 | 0.00 | 0.00 | 0.00 | 28 | 996.6 |
| 20260505013018 | 71 | 64 | 0.0 | 5.0 | 0.00 | 0.00 | 0.00 | 34 | 996.6 |
| 20260505011518 | 71 | 66 | 0.0 | 8.0 | 0.00 | 0.00 | 0.00 | 31 | 996.6 |
| 20260505010017 | 72 | 51 | 5.0 | 10.0 | 0.00 | 0.00 | 0.00 | 31 | 996.7 |
| 20260505004514 | 72 | 74 | 4.0 | 7.0 | 0.00 | 0.00 | 0.00 | 29 | 996.9 |
| 20260505003020 | 71 | 348 | 0.0 | 5.0 | 0.00 | 0.00 | 0.00 | 32 | 997.1 |
| 20260505001513 | 72 | 360 | 4.0 | 9.0 | 0.00 | 0.00 | 0.00 | 31 | 997.2 |
| 20260505000012 | 72 | 37 | 4.0 | 13.0 | 0.00 | 0.00 | 0.00 | 30 | 997.2 |
| 20260504234511 | 71 | 55 | 8.0 | 14.0 | 0.00 | 0.00 | 0.00 | 31 | 997.3 |
| 20260504233012 | 70 | 29 | 9.0 | 14.0 | 0.00 | 0.00 | 0.00 | 33 | 997.5 |
| 20260504231509 | 70 | 32 | 9.0 | 17.0 | 0.00 | 0.00 | 0.00 | 37 | 997.4 |
| 20260504230010 | 70 | 19 | 10.0 | 15.0 | 0.00 | 0.00 | 0.00 | 38 | 997.4 |
| 20260504224507 | 69 | 27 | 9.0 | 14.0 | 0.00 | 0.00 | 0.00 | 40 | 997.6 |
| 20260504223007 | 69 | 332 | 9.0 | 14.0 | 0.00 | 0.00 | 0.00 | 39 | 997.6 |
| 20260504221507 | 68 | 336 | 6.0 | 11.0 | 0.00 | 0.00 | 0.00 | 40 | 997.4 |
| 20260504220005 | 71 | 314 | 4.0 | 20.0 | 0.00 | 0.00 | 0.00 | 40 | 998.1 |
| 20260504214504 | 76 | 239 | 8.0 | 11.0 | 0.00 | 0.00 | 0.00 | 24 | 997.6 |
| 20260504213004 | 78 | 186 | 9.0 | 16.0 | 0.00 | 0.00 | 0.00 | 22 | 997.5 |
| 20260504211501 | 77 | 148 | 11.0 | 22.0 | 0.00 | 0.00 | 0.00 | 24 | 997.6 |
| 20260504210109 | 76 | 189 | 14.0 | 24.0 | 0.00 | 0.00 | 0.00 | 24 | 997.6 |
| 20260504204609 | 77 | 212 | 9.0 | 18.0 | 0.00 | 0.00 | 0.00 | 24 | 997.8 |
| 20260504203108 | 78 | 219 | 10.0 | 17.0 | 0.00 | 0.00 | 0.00 | 22 | 997.7 |
| 20260504201557 | 80 | 271 | 1.0 | 9.0 | 0.00 | 0.00 | 0.00 | 21 | 997.8 |
| 20260504200055 | 81 | 150 | 2.0 | 8.0 | 0.00 | 0.00 | 0.00 | 20 | 998.1 |
| 20260504194600 | 78 | 174 | 1.0 | 9.0 | 0.00 | 0.00 | 0.00 | 22 | 998.3 |
| 20260504193051 | 78 | 101 | 8.0 | 12.0 | 0.00 | 0.00 | 0.00 | 22 | 998.6 |
| 20260504191547 | 76 | 112 | 2.0 | 10.0 | 0.00 | 0.00 | 0.00 | 25 | 998.9 |
| 20260504190106 | 75 | 116 | 1.0 | 12.0 | 0.00 | 0.00 | 0.00 | 26 | 999.3 |
| 20260504184542 | 76 | 163 | 5.0 | 10.0 | 0.00 | 0.00 | 0.00 | 26 | 999.6 |
| 20260504183039 | 77 | 249 | 3.0 | 11.0 | 0.00 | 0.00 | 0.00 | 26 | 1000.1 |
| 20260504181541 | 73 | 86 | 0.0 | 11.0 | 0.00 | 0.00 | 0.00 | 29 | 1000.2 |
| 20260504180034 | 75 | 119 | 4.0 | 8.0 | 0.00 | 0.00 | 0.00 | 27 | 1000.6 |
| 20260504174530 | 74 | 155 | 5.0 | 10.0 | 0.00 | 0.00 | 0.00 | 28 | 1000.8 |
| 20260504173027 | 72 | 263 | 7.0 | 12.0 | 0.00 | 0.00 | 0.00 | 30 | 1001.2 |
| 20260504171525 | 73 | 252 | 3.0 | 10.0 | 0.00 | 0.00 | 0.00 | 28 | 1001.3 |
| 20260504081524 | 66 | 180 | 4.0 | 9.0 | 0.00 | 0.00 | 0.00 | 36 | 1002.4 |
| 20260504050116 | 72 | 223 | 19.0 | 30.0 | 0.00 | 0.00 | 0.00 | 27 | 1002.6 |
| 20260504044600 | 74 | 226 | 11.0 | 25.0 | 0.00 | 0.00 | 0.00 | 19 | 1002.1 |
| 20260504043110 | 74 | 236 | 8.0 | 14.0 | 0.00 | 0.00 | 0.00 | 18 | 1001.8 |
| 20260504041558 | 74 | 342 | 8.0 | 20.0 | 0.00 | 0.00 | 0.00 | 17 | 1001.4 |
| 20260504040100 | 72 | 245 | 6.0 | 29.0 | 0.00 | 0.00 | 0.00 | 19 | 1001.8 |
| 20260504034600 | 70 | 261 | 0.0 | 2.0 | 0.00 | 0.00 | 0.00 | 22 | 1001.3 |
| 20260504033059 | 71 | 261 | 0.0 | 0.0 | 0.00 | 0.00 | 0.00 | 19 | 1001.2 |
| 20260504031604 | 72 | 262 | 0.0 | 3.0 | 0.00 | 0.00 | 0.00 | 20 | 1001.1 |
| 20260504030055 | 71 | 261 | 0.0 | 2.0 | 0.00 | 0.00 | 0.00 | 20 | 1001.1 |
| 20260504024556 | 73 | 257 | 2.0 | 5.0 | 0.00 | 0.00 | 0.00 | 28 | 1000.9 |
| 20260504023054 | 74 | 190 | 0.0 | 0.0 | 0.00 | 0.00 | 0.00 | 18 | 1000.8 |